Terug naar catalogus

COSMOS 839 DEB *

ActiefUNKNOWN
NORAD 20030·DEBRIS·🇷🇺 Russia

Gelanceerd Jul 8, 1976 vanaf Plesetsk Cosmodrome

Loading…

Volgende Passages (komende 24 uur)

TLE

VersSource: Space-Track

Epoch: Sep 4, 2026, 17:20 UTC

1 20030U 76067BU  26247.72272489  .00000381  00000-0  14632-2 0  9993
2 20030  65.6762 258.6698 0782113 159.0997 204.3924 12.24636021240709

Volg COSMOS 839 DEB * in realtime met AllMySat

Download on the App Store